Bodensee (Kressbronn): 6,7°C  -  Teich der Wetterzentrale Bad Schussenried: 5,6°C |  Schneehöhe Kreuzthal-Steinberg (930 m ü. NN): 8 cm   
01.04.2020Höhe
ü. NN
ZeitTemperatur (°C)Nieder-
schlag
Luft-
feuchte
Luft-
druck
Wind
StationaktuellMinimumMaximumaktuellMaximum
Aldingen654 m06:16-4,5-4,5 (07:35)-0,3 (16:02)0,0 l/m²78%1023,43,7 km/h (1 Bft) W29,6 km/h (5 Bft) W (14:48)
Allmendingen541 m06:15-6,2-6,3 (07:35)-2,1 (15:10)0,0 l/m²88%1023,20,0 km/h (0 Bft) NO35,4 km/h (5 Bft) O (15:35)
Altshausen574 m06:15-3,7-3,9 (05:14)-1,1 (00:16)0,0 l/m²67%1020,88,0 km/h (2 Bft) N11,3 km/h (2 Bft) N (06:10)
Amstetten-Reutti663 m06:15-4,7-4,7 (06:15)-1,5 (16:55)0,0 l/m²86%1022,93,2 km/h (1 Bft) N-NO48,3 km/h (6 Bft) W (15:55)
Amtzell-Grenis677 m06:15-3,7-4,1 (06:05)-1,4 (00:00)0,0 l/m²63%1022,96,4 km/h (2 Bft) W-SW6,4 km/h (2 Bft) W-SW (00:00)
Aulendorf570 m06:15-2,9-2,9 (06:10)-0,5 (00:00)0,0 l/m²71%1021,86,4 km/h (2 Bft) NO14,5 km/h (3 Bft) O-NO (05:13)
Bad Krozingen233 m06:15-2,1-2,1 (06:15)3,7 (16:05)0,0 l/m²77%1023,35,2 km/h (1 Bft) SW38,1 km/h (5 Bft) N (17:05)
Bad Saulgau595 m06:15-5,0-5,0 (07:00)-1,9 (15:00)0,0 l/m²87%1021,60,0 km/h (0 Bft) S-SO25,7 km/h (4 Bft) S (11:35)
Bad Saulgau, Mannsgrab588 m06:18-4,9-6,1 (05:34)-1,7 (00:17)0,0 l/m²86%1024,20,0 km/h (0 Bft) N-NO0,0 km/h (0 Bft) N (00:00)
Bad Saulgau-Lampertsweiler627 m06:15-4,8-4,8 (06:15)0,2 (00:00)0,0 l/m²81%1024,76,4 km/h (2 Bft) N-NW22,5 km/h (4 Bft) N-NW (01:15)
Bad Schussenried572 m06:15-4,0-4,0 (06:10)-1,1 (00:00)0,0 l/m²87%1021,20,0 km/h (0 Bft) NO9,7 km/h (2 Bft) NO (03:15)
Bergatreute615 m01:45-0,7-0,7 (00:45)0,0 (00:00)0,0 l/m²77%1023,512,9 km/h (3 Bft) NO16,1 km/h (3 Bft) O-NO (01:40)
Biberach (Riss), Boehringer533 m06:20-4,1-4,4 (06:20)-1,1 (00:30)0,0 l/m²88%1021,92,9 km/h (1 Bft) NW11,9 km/h (3 Bft) N (03:00)
Biberach (Riss), Realschule553 m06:15-3,9-3,9 (06:05)-0,3 (00:00)0,0 l/m²87%1023,711,3 km/h (2 Bft) N-NO12,9 km/h (3 Bft) N (06:05)
Burgrieden523 m06:15-3,9-3,9 (06:10)-0,4 (00:00)0,0 l/m²81%1022,80,0 km/h (0 Bft) NO4,8 km/h (1 Bft) O-NO (02:50)
Burgrieden-Hochstetten510 m06:15-4,6-4,6 (07:00)-0,9 (15:40)0,0 l/m²89%1023,33,2 km/h (1 Bft) N-NO25,7 km/h (4 Bft) NO (12:55)
Ebersbach579 m06:15-3,6-3,8 (05:55)-0,1 (00:00)0,0 l/m²86%1023,28,0 km/h (2 Bft) N-NW16,1 km/h (3 Bft) NO (01:25)
Ebersbach-Boos605 m06:15-4,2-4,2 (05:55)-0,1 (00:00)0,0 l/m²88%1022,912,9 km/h (3 Bft) NO22,5 km/h (4 Bft) O (01:00)
Ebersbach-Menzenweiler661 m06:15-3,8-3,8 (06:10)-0,6 (00:00)0,0 l/m²88%1022,917,7 km/h (3 Bft) N-NO24,1 km/h (4 Bft) O-NO (01:05)
Ehingen535 m01:10-2,5-2,5 (01:10)-1,3 (00:05)0,0 l/m²70%1025,40,0 km/h (0 Bft) N-NO5,0 km/h (1 Bft) N-NO (00:15)
Erlenmoos645 m06:15-3,3-3,3 (06:15)-0,9 (00:00)0,0 l/m²86%1022,66,4 km/h (2 Bft) NO12,9 km/h (3 Bft) O-NO (01:35)
Ertingen569 m06:15-3,4-3,4 (06:00)-0,6 (00:00)0,0 l/m²84%1022,84,8 km/h (1 Bft) N-NO16,1 km/h (3 Bft) N-NO (04:10)
Friedrichshafen405 m06:15-1,6-1,6 (07:00)0,9 (13:30)0,0 l/m²78%1022,611,3 km/h (2 Bft) NO27,4 km/h (4 Bft) NO (15:10)
Günzburg443 m06:15-4,8-4,8 (06:05)-1,1 (00:00)0,0 l/m²87%1020,70,0 km/h (0 Bft) NO0,0 km/h (0 Bft) NO (00:00)
Hochdorf-Appendorf537 m06:15-5,2-5,8 (06:05)-1,7 (00:15)0,0 l/m²67%1022,56,4 km/h (2 Bft) N-NO14,5 km/h (3 Bft) N-NW (03:20)
Höchsten802 m06:15-3,7-3,7 (06:00)-1,4 (00:00)0,0 l/m²80%1020,519,3 km/h (3 Bft) N25,7 km/h (4 Bft) NO (02:45)
Horgenzell618 m06:15-1,9-1,9 (03:45)-0,6 (00:05)0,0 l/m²76%1020,14,8 km/h (1 Bft) N-NO19,3 km/h (3 Bft) N-NO (00:50)
Hoßkirch632 m06:15-6,5-6,5 (06:15)-1,0 (00:15)0,0 l/m²87%1021,74,8 km/h (1 Bft) O14,5 km/h (3 Bft) O-NO (00:20)
Isny, Am Dreifingerbach695 m06:15-4,6-4,6 (06:15)0,1 (01:00)0,0 l/m²81%1021,34,8 km/h (1 Bft) W14,5 km/h (3 Bft) O-NO (01:05)
Isny, Weidachweg706 m06:15-4,2-4,2 (06:15)0,3 (00:25)0,0 l/m²76%1023,50,0 km/h (0 Bft) W12,9 km/h (3 Bft) W (00:10)
Kappel-Grafenhausen163 m06:10-1,4-1,4 (07:00)3,3 (14:55)0,0 l/m²77%1021,11,6 km/h (1 Bft) N30,6 km/h (5 Bft) N-NO (16:55)
Kißlegg-Staibshof709 m06:15-3,2-3,2 (06:00)-0,9 (00:00)0,0 l/m²82%1022,48,0 km/h (2 Bft) NO14,5 km/h (3 Bft) O (01:50)
Kressbronn398 m06:18-2,1-2,1 (06:16)1,4 (00:00)0,0 l/m²75%1021,20,0 km/h (0 Bft) NO22,5 km/h (4 Bft) NO (00:54)
Kreuzthal-Steinberg-Alpe930 m06:10-4,5-4,8 (04:00)-2,5 (00:00)0,0 l/m²88%1022,01,8 km/h (1 Bft) N-NW22,0 km/h (4 Bft) W-NW (00:10)
Kreuzthal-Steinberggipfel1040 m06:10-3,5-4,0 (02:20)-3,1 (00:10)-74%1022,014,4 km/h (3 Bft) O37,1 km/h (5 Bft) O-SO (00:10)
Kristberg im Montafon (AT)1425 m06:15-6,4-6,6 (04:51)-5,3 (00:40)0,0 l/m²61%1026,20,0 km/h (0 Bft) N-NO10,1 km/h (2 Bft) NO (01:47)
Laupheim500 m06:15-3,8-3,8 (06:15)0,0 (00:00)0,0 l/m²82%1022,40,0 km/h (0 Bft) NO9,7 km/h (2 Bft) O-SO (00:20)
Leutkirch-Heggelbach670 m06:15-4,6-4,6 (05:40)-2,6 (00:30)0,0 l/m²87%1021,60,0 km/h (0 Bft) N-NO8,0 km/h (2 Bft) N-NO (03:30)
Lindau-Insel420 m06:15-1,2-1,2 (07:25)1,8 (14:55)0,0 l/m²73%1021,70,0 km/h (0 Bft) O-NO29,0 km/h (5 Bft) NO (17:05)
Lindau-Stadt412 m06:15-2,0-2,0 (07:25)1,2 (14:55)0,0 l/m²75%1021,83,2 km/h (1 Bft) NO33,8 km/h (5 Bft) N-NO (15:40)
Maierhöfen im Allgäu733 m06:15-3,7-3,7 (06:10)-1,2 (01:35)0,0 l/m²76%1021,94,8 km/h (1 Bft) N25,7 km/h (4 Bft) O-SO (02:05)
Maselheim543 m06:15-5,0-5,0 (07:25)-2,3 (13:20)0,0 l/m²86%1023,10,0 km/h (0 Bft) N-NW24,1 km/h (4 Bft) O-NO (15:20)
Maselheim-Sulmingen548 m06:15-4,9-4,9 (07:05)-2,2 (15:15)0,0 l/m²89%1024,36,4 km/h (2 Bft) NW20,9 km/h (4 Bft) N-NO (12:15)
Mietingen-Baltringen528 m06:15-4,7-4,7 (05:40)-1,3 (00:45)0,0 l/m²86%1024,70,0 km/h (0 Bft) O-NO4,8 km/h (1 Bft) N-NO (01:20)
Mindelheim-Apfeltrach620 m06:16-5,6-5,6 (06:08)-2,7 (00:00)0,0 l/m²88%1024,00,0 km/h (0 Bft) NO0,0 km/h (0 Bft) O-NO (00:00)
Mittelbiberach577 m06:16-4,4-4,4 (06:08)-1,0 (00:16)0,0 l/m²84%1023,86,4 km/h (2 Bft) NO12,8 km/h (3 Bft) NO (05:56)
Neresheim552 m06:01-6,8-6,8 (06:01)-2,0 (00:00)0,0 l/m²89%1021,70,0 km/h (0 Bft) O4,0 km/h (1 Bft) NO (01:00)
Neukirch570 m06:15-3,1-3,1 (07:05)-0,9 (14:35)0,0 l/m²81%1022,18,0 km/h (2 Bft) N-NO37,0 km/h (5 Bft) N-NO (11:55)
Ochsenhausen, Birkenstraße613 m06:15-5,3-5,3 (07:10)-2,2 (12:50)0,0 l/m²81%1023,21,6 km/h (1 Bft) NO3,2 km/h (1 Bft) S-SW (07:05)
Ochsenhausen, Unt. Wiesen575 m06:15-5,7-5,7 (06:15)-2,4 (00:00)0,0 l/m²88%1024,40,0 km/h (0 Bft) NO4,8 km/h (1 Bft) NO (00:00)
Opfenbach-Göritz561 m06:16-4,2-5,2 (05:22)-2,8 (00:00)0,0 l/m²75%1020,10,0 km/h (0 Bft) N-NO6,5 km/h (2 Bft) O-NO (00:18)
Ostrach619 m06:15-3,7-3,8 (04:15)-0,6 (00:00)0,0 l/m²88%1021,24,8 km/h (1 Bft) NW8,0 km/h (2 Bft) N-NW (04:40)
Ravensburg, Goethestraße428 m06:15-1,7-1,7 (06:10)1,3 (00:00)0,0 l/m²79%1021,816,1 km/h (3 Bft) O-NO16,1 km/h (3 Bft) O-NO (06:15)
Ravensburg-Wernsreute511 m06:15-2,9-2,9 (05:30)0,0 (15:50)0,0 l/m²81%1024,516,1 km/h (3 Bft) N-NW35,4 km/h (5 Bft) N-NO (11:45)
Reichenbach an der Fils343 m06:15-2,0-2,0 (06:10)1,0 (00:00)0,0 l/m²77%1025,40,0 km/h (0 Bft) SO12,9 km/h (3 Bft) O-SO (05:10)
Riedlingen530 m06:15-3,2-3,2 (06:10)-1,0 (00:00)0,0 l/m²81%1023,00,0 km/h (0 Bft) O-NO0,0 km/h (0 Bft) N (00:00)
Rißtissen489 m06:15-3,1-3,1 (06:15)-0,2 (00:00)0,0 l/m²85%1020,70,0 km/h (0 Bft) O-NO8,0 km/h (2 Bft) O-NO (03:30)
Rottweil-Hausen681 m06:18-4,0-4,4 (05:57)-1,9 (00:00)0,0 l/m²83%1023,86,5 km/h (2 Bft) N-NW6,5 km/h (2 Bft) N (02:14)
Schemmerhofen520 m06:152,72,7 (00:00)2,7 (00:00)0,0 l/m²55%1021,80,0 km/h (0 Bft) NO0,0 km/h (0 Bft) NO (00:00)
Silbertal im Montafon (AT)884 m06:15-4,4-4,4 (06:14)-1,6 (00:01)0,0 l/m²85%1026,00,0 km/h (0 Bft) O-NO0,0 km/h (0 Bft) O-NO (00:00)
Tettnang466 m06:19-1,4-1,4 (06:15)1,0 (00:00)0,0 l/m²72%1021,77,9 km/h (2 Bft) N-NO16,2 km/h (3 Bft) O-SO (01:07)
Tuttlingen648 m06:11-4,1-4,3 (05:41)-2,1 (00:01)0,0 l/m²76%1023,50,0 km/h (0 Bft) SW5,2 km/h (1 Bft) W-SW (03:26)
Tuttlingen, Möhringer-Vorstadt711 m06:15-4,1-4,5 (07:10)-2,4 (16:05)0,0 l/m²82%1022,60,0 km/h (0 Bft) NO25,7 km/h (4 Bft) N-NW (12:35)
Ummendorf547 m06:15-4,4-4,5 (06:10)-0,7 (00:10)0,0 l/m²69%1023,90,0 km/h (0 Bft) O-NO16,1 km/h (3 Bft) O (01:05)
Ummendorf-Fischbach558 m06:15-5,4-5,4 (06:15)-1,9 (01:25)0,0 l/m²70%1023,70,0 km/h (0 Bft) O4,8 km/h (1 Bft) O (04:20)
Waldburg707 m06:15-3,2-3,2 (06:15)-0,8 (00:00)0,0 l/m²80%1021,512,9 km/h (3 Bft) N19,3 km/h (3 Bft) N (02:35)
Waltenhofen im Allgäu720 m06:15-7,3-7,3 (06:15)-2,2 (01:05)0,0 l/m²90%1022,60,0 km/h (0 Bft) N-NW17,7 km/h (3 Bft) N-NW (11:50)
Wangen, Südring548 m06:15-3,9-3,9 (05:54)-0,3 (00:00)0,0 l/m²83%1021,64,7 km/h (1 Bft) O-NO13,0 km/h (3 Bft) NO (01:25)
Warthausen-Birkenhard581 m06:14-4,2-4,3 (05:35)-1,2 (00:00)0,0 l/m²86%1023,413,7 km/h (3 Bft) N-NO13,7 km/h (3 Bft) NO (06:13)
Winterlingen785 m06:15-5,6-5,6 (06:15)-2,8 (01:00)0,0 l/m²84%1022,51,1 km/h (1 Bft) N3,6 km/h (1 Bft) NO (00:55)

niederschlagsdatenbank | info | login - erfassung

Sollten Sie Interesse haben, an der Niederschlagsdatenbank teilzunehmen, finden Sie > hier < weitere Informationen.
Datum: . . Kalender
Anmerkung:0,0 = nicht messbarer Niederschlag
 -  = kein Niederschlag
 k  = kumulierter Niederschlag

< 12.03.201914.03.2019 >


Niederschlagswerte vom 13.03.2019    -    derzeit 112 Stationen

Die Niederschlagswerte des gewählten Tages lassen sich durch Klicken auf das Datum sortieren.
Die Angaben sind in l/m².

Station10.03.11.03.12.03.13.03.14.03.15.03.16.03.Bemerkung 13.03.
Aichstetten Ulmenstraße 7-------
Aichstetten-Nestbaum Nestbaum-------
Albbruck Furmisstr. 1816,25,01,26,028,318,0-
Wechselhaftes Schauerwetter +6°C Nachts +3°C
Regen
Allmendingen Querqueviller Ring 611,0-1,02,89,517,0-
Regen
Amstetten-Reutti Gassenäcker 136,81,20,42,611,822,60,2
Regen
Aulendorf Steinenbacher Weg 33-8,2-5,05,25,5-
Regen Schneeregen
Aulendorf-Blönried Heuweg 328,2-0,03,08,36,2-
Bad Bellingen Rheinstraße 76-------
Bad Buchau Hanfweiher 13,01,50,012,07,07,0-
Regen Schneeregen Schnee
Bad Saulgau Walserweg5,06,00,08,09,04,0-
Regen Schneeregen
Bad Saulgau-Hochberg Lampertsweiler Straße 124,24,4-7,08,04,6-
Bad Schussenried Konradstraße4,13,20,512,08,38,9-
Regen Schneeregen Graupel Eiskörner
Bad Schussenried Lortzingstrasse4,55,0-12,09,07,5-
Regen
Bad Schussenried Klosterstraße4,04,51,012,09,08,4-
Regen Graupel
Bad Schussenried Theodor-Storm-Strasse4,04,0-----
Bad Schussenried-Hopferbach Unterer Öschweg 16/14,52,00,212,011,010,0-
Regen Schneeregen Schnee
Bad Schussenried-Lufthütte Hauptgasse 175,04,0-11,09,08,00,0
Regen
Bad Schussenried-Sattenbeuren Ortsstraße 7-------
Bad Schussenried-Schwaigfurt Schwaigfurt 25,02,0-9,511,08,5-
Bad Waldsee-Haisterkirch Zur Spitzenkapelle 15,05,50,88,512,011,5-
+1/+10°C, nachts Regen nach massiver Abkühlung auf den Abend, kräft [weiterlesen...]
Regen
Bad Wurzach-Seibranz Kimpflerhof 2 8,53,31,33,310,519,5-
Schnee
Schneehöhe: Reste
Baienfurt Untere Bergstrasse 710,07,02,03,018,07,0-
Regen Schneeregen
Balzheim Hinterm Liess 192,55,00,23,04,517,0-
Regen
Berg-Kleintobel Kleintobel11,55,03,06,215,919,5-
Regen
Biberach Amriswilstrasse2,60,51,39,06,912,8-
Regen
Biberach Strölinweg5,01,00,59,510,011,0-
bereits komplett weggetaut..
Regen Schneeregen Schnee Graupel
Biberach Erlenweg2,5-1,09,56,012,0-
Regen
Biberach Neue Heimat 53,02,01,09,05,013,0-
Regen
Biberach Mittelbergstraße 92,01,50,59,06,012,0-
Regen
Biberach Auf dem Lindele-------
Biberach-Bergerhausen Löcherstr.13,02,00,28,57,014,5-
Regen Schneeregen Schnee Graupel
Bierstetten Schloßbühl 64,54,0-10,55,06,0-
Regen
Blaubeuren-Pappelau Sotzenhauserstr.75,0-----33,0
Bühlertal Wolfinstraße 1620,02,0-9,514,030,0-
Regen
Dettingen a. d. Iller Schleifweg 4-------
Dornstadt-Tomerdingen Maienweg 95,5-0,32,011,023,0-
Dürnau Dorfäckerweg 52,52,00,19,55,06,0-
Regen Schnee Graupel
Eberhardzell Lilienweg2,71,1-9,05,310,9-
Regen
Ebersbach-Roßwälden Appenwiesen7,10,00,02,85,512,0-
Immer wieder Regen und Schnee.

2,4 bis 8,9 Grad
Regen Schneeregen Schnee
Ehingen Rosenstraße8,80,50,43,07,017,5-
Regen
Ehingen Zanderstraße6,8--3,07,1--
Ehingen Schlaufenbühl6,44,30,53,36,915,0-
Regen Schnee
Ehingen Schillerstraße6,02,00,73,37,819,0-
Regen
Ehingen-Herbertshofen Tobelweg 9-------
Eislingen Albstraße 1259,31,40,33,16,026,7-
Regen Graupel
Erbach-Bach Hauptstraße 244,03,00,23,07,014,5-
Regen
Erlenmoos Haldenweg 153,43,40,19,37,916,2-
Regen Schnee
Füramoos Hungersberg 16,20,00,02,111,016,50,0
Gutenzell Kleinser Berg 13,52,50,07,05,014,0-
Gutenzell-Hürbel Bei der Sägmühle 13,02,01,08,06,013,0-
Regen Schnee
Herbertingen Drosselweg5,01,50,3-19,56,5-
Herbertingen Hirschstrasse5,01,0-11,09,04,0-
Regen Schneeregen Schnee Eiskörner
Hochdorf-Schweinhausen Lindenweg 24,0--8,87,811,6-
Regen
Hohentengen-Bremen Bremer Halde 46,02,00,05,014,06,0-
Regen Schnee
Horgenzell-Ringgenweiler Ringgenweiler 6204,56,22,54,28,45,8-
Hüttisheim Ulmer Weg 23,57,00,02,04,518,5-
Regen
Illerkirchberg Mahdauweg 204,63,0-2,79,125,0-
Regen Schnee Graupel
Illerrieden-Wangen Am Muckenberg 122,53,0-2,55,022,0-
Immenstaad Stockwiesen 10-------
Inzigkofen Butzenweg 16,05,20,010,010,56,1-
Schneeregen Schnee
Isny Am Dreifingerbach 3914,82,20,04,015,427,80,2
Regen Schneeregen Schnee
Kirchberg Rosenstr. 74,05,00,16,05,118,0-
Regen
Kreuzthal-Steinberg-Alpe Im Kreuzbachthal 8515,35,60,79,022,427,1-
Schneeregen Schnee
Schneehöhe: 34 cm
Langenau Wasserstr. 54-17,02,0-3,013,023,02,0
Langenenslingen Schattenweiler Str. 187,30,20,012,110,19,00,0
Regen Schneeregen
Leutkirch Unterer Auenweg 258,93,04,45,010,519,80,0
Regen Schnee Graupel
Leutkirch Nachtigallenweg 2812,57,06,05,011,021,0-
Leutkirch-Adrazhofen Bergstraße 209,56,04,55,511,020,01,0
Schneeregen
Merklingen Millergasse 9-------
Mietingen Seerosenweg 10-------
Mietingen-Walpertshofen Bussenweg 314,02,01,03,05,03,0-
Mittelbiberach-Reute Rindenmooser Straße 23,01,51,110,36,4--
Regen Schneeregen
Moosburg Käserweg 53,00,90,513,06,57,9-
Tagsüber einzelne Schnee- Regenschauer, verstärkt am Nachmittag. Wie [weiterlesen...]
Regen Schneeregen Schnee Graupel
Münsingen-Rietheim In der Lise 2014,21,40,84,07,015,80,2
Regen Schneeregen Schnee Graupel
Schneehöhe: Reste
Neresheim Alfred-Delp-Straße 89,92,80,02,216,611,40,3
Schneeregen
Oberdischingen Normannenstraße 7-----35,5-
Ochsenhausen Ehrensberger Weg 52,81,50,16,55,014,5-
Regen Schneeregen
Öpfingen Hauptstraße 996,03,00,12,55,818,50,1
Regen
Ostrach Uhlandweg8,55,00,04,012,07,0-
Regen Nieselregen Schnee
Pfaffenhofen-Kadeltshofen Mühlbachstraße 43,02,0-1,08,019,00,0
Pfullendorf Am Schweizersbild 13,0--2,3---
Rangendingen Donaustraße 1910,0--15,0 k14,07,0-
Ravensburg Bleicherstraße8,08,1-5,217,0--
Ravensburg-Schmalegg St.-Magdalena-Ring 425,511,52,05,019,213,2-
Nieselregen
Ravensburg-Wernsreute Wernsreute 259,04,6-2,214,418,8-
Regen Graupel
Ravensburg-Weststadt Karl-Erb-Ring 1427,58,01,04,014,516,0-
Regen
Regensburg Orleansstraße 3-------
Riedhausen Blütenweg 1311,43,2-2,212,64,0-
Temp. +1,7°C / +8,3°C, Windböen SW 43,5 km/h
Regen
Riedlingen Berliner Str. 4110,52,0-10,09,29,5-
Schneeregen Schnee
Riedlingen-Neufra Panoramaweg-------
Riedlingen-Neufra Riedlinger Strasse5,21,80,510,57,87,20,2
+ 3,8 Grad, nass, bedeckter Himmel
Schelklingen-Gundershofen Schwarzer-Straße 1411,07,01,05,010,017,0-
Temp. zw. -3,1°C und +12,4°C. Unterschiedlich starke Bewölkung. Imm [weiterlesen...]
Schemmerberg Drosselweg 94,74,51,56,05,515,5-
Schwörstadt Schulstrasse 198,67,41,67,014,84,8-
Regen Schnee Graupel
Seekirch Haldenberg 7-------
Sigmaringendorf Weingartenstraße 75,04,80,09,811,16,2-
Regen Schneeregen Schnee
Tuttlingen Möhringerstraße 110,08,60,87,216,811,5-
Erneut stürmische Böen bis 61,6 km/h.
Regen Schneeregen Schnee
Schneehöhe: Reste
Ulm Eberhardtstraße 752,1-0,0-0,68,019,0
Ummendorf Tulpenweg-4,00,19,38,014,0-
Regen Nieselregen Schnee Graupel
Ummendorf Friedrich-Schiller-Str.-------
Uttenweiler-Ahlen Seekircher Straße 83,12,0-8,5-9,5-
Regen Schneeregen
Vöhringen (Schwarzwald) Drosselweg 320,0-6,017,020,021,0-
Waldburg Kastanienweg119,05,5---39,5-
Wangen-Bergerhöhe Berg 29,07,20,93,113,226,0-
Regen
Warthausen An der Schloßhalde 3,0-1,38,73,89,7-
Regen
Warthausen Schwabenwiesen 6,30,7-9,25,612,7-
Regen
Warthausen-Barabein Barabein 205,5-1,07,05,010,0-
Regen
Weingarten Laurastraße12,06,01,04,012,014,50,1
+ 3,4 ° C um 5.00 Uhr
Regen Nieselregen
Weingarten Hoyerstraße-------
Weingarten Marienstraße11,05,01,55,014,014,00,0
Regen
Wolfegg-Veesers Veesers 1-------
Wolpertswende Aulendorfer Str. 176,32,70,91,813,02,70,4
Regen Schneeregen
Schneehöhe: 0,0

Stillgelegte Niederschlagsstationen    -    derzeit 49 Stationen

StationLetzte Meldung10.03.11.03.12.03.13.03.14.03.15.03.16.03.Bemerkung 13.03.
Allmannsweiler Eggatsweilerstr.2802.09.2014-------
Aulendorf-Rugetsweiler Erikaweg 325.07.2013-------
Aulendorf-Zollenreute Imterstraße 1209.02.2019-------
Bad Saulgau Willi-Burth-Straße19.09.2011-------
Bad Saulgau Eichendorffweg28.03.2013-------
Bad Saulgau Seewattenstraße 12815.01.2014-------
Bad Saulgau-Lampertsweiler Valentinstr. 2618.02.2015-------
Bad Schussenried-Steinhausen Drosselgasse 4/126.09.2012-------
Bad Waldsee-Michelwinnanden Michelberg 531.12.2014-------
Bad Waldsee-Osterhofen Hochwaldgasse 406.03.2015-------
Bad Waldsee-Steinach Hofraingasse 1510.11.2013-------
Bad Wurzach-Dietmanns Postweg 519.01.2019-------
Bad Wurzach-Haidgau Wengener Straße 507.10.2012-------
Bad Wurzach-Ziegelbach Ziegelbach-Greut 507.11.2014-------
Bergatreute Bolanden 113.02.2012-------
Betzenweiler Offinger Straße 505.01.2017-------
Burgrieden Am Nonnenberg 328.10.2013-------
Burgrieden-Rot Schmiedgasse 518.09.2013-------
Eberhardzell Schillerstraße05.07.2010-------
Ehingen Am Elzengraben17.06.2016-------
Gammertingen Schillerstraße 2216.01.2016-------
Griesingen Blumenstraße 906.10.2015-------
Günzburg Erlenbadweg 34 1/231.12.2010-------
Hoßkirch Kirchstraße 805.01.2018-------
Ingoldingen-Grodt Ingoldinger Weg 1919.11.2016-------
Kisslegg Kirchmoosstraße02.05.2011-------
Krauchenwies-Hausen Rosenrain 123.11.2013-------
Kressbronn Irisstraße 410.03.2010-------
Leutkirch-Ottmannshofen Spitalriedstraße 527.07.2012-------
Leutkirch-Rotis Rotis 5/208.05.2016-------
Leutkirch-Wuchzenhofen Untere Kirchstraße 18/119.09.2016-------
Mietingen Hangweg 1530.12.2017-------
Mössingen-Bästenhardt Weissdornweg 721.07.2014-------
Ostrach Heiligenberger Straße19.08.2013-------
Pfullendorf Ringstraße 18.03.2012-------
Ravensburg Olgastraße30.10.2016-------
Seltmans Amselweg 2209.04.2013-------
Stuttgart-Bad Cannstatt Beuthener Str. 6703.02.2013-------
Stuttgart-Möhringen Glashütter Weg 1023.04.2017-------
Stuttgart-Rohr Hirschsprung 307.11.2012-------
Talheim Im Schecken 2121.08.2016-------
Tannheim Eggmannstr. 42 22.10.2017-------
Tettnang-Ramsbach Jahnstr. 24/126.03.2011-------
Tuttlingen-Möhringen Belchenstraße01.01.2015-------
Ummendorf Bergstraße23.10.2017-------
Vogt Mühlwies 1822.05.2015-------
Wangen-Atzenberg Keplerweg 324.02.2019-------
Weingarten Bischof-Sproll-Straße30.06.2011-------
Wilhelmsdorf Riedhauser Straße 28.10.2012-------
Wilhelmsdorf Seefeld20.08.2013-------
Wurmlingen An der Steig 3014.10.2016-------
Die Niederschlagswerte des gewählten Tages lassen sich durch Klicken auf das Datum sortieren.
Die Angaben sind in l/m².

Wetterbeobachtungen Legende:

  • Regen
  • Nieselregen
  • Schneeregen
  • Schnee
  • Graupel
  • Eiskörner
  • Hagel
  • Bodennebel
  • Gewitter
  • Nebelnässe
  • Schneegriesel

Grafische Darstellung der Tagesniederschläge vom 13.03.2019

< 12.03.201914.03.2019 >Monats- und Jahresniederschlag


 
wetterstationen
wetterstationen
- derzeit 83 Stationen
niederschlagsdatenbank
wetterstationen
- kartographische Darstellung
niederschlagsdatenbank
niederschlagsstationen
- derzeit 112 Stationen
niederschlagsdatenbank
niederschlagsstationen
- kartographische Darstellung
 
  treffpunkt & service
--- Anzeigen --------------------------------
zugriffe:
insgesamt: 46.623.274
aktueller monat: 463
heute: 463
momentan online: 24
 
 
monatshöchstwert: 653.625
vorheriger monat: 364.213
gestern: 13.565
tageshöchstwert: 57.073
 
wetterwarte süd
 
konradstraße 3
info@wetterwarte-sued.com
roland roth
 
88427 bad schussenried